Regional Weather Roundup
Issued by NWS

Home | Current Version | Previous Version | Graphics & Text | Print | Product List | Glossary On
Versions: 1 2 3 4 5 6 7 8 9 10 11 12 13 14 15 16 17 18 19 20 21 22 23 24 25 26 27 28 29 30 31 32 33 34 35 36 37 38 39 40 41 42 43 44 45 46 47 48 49 50
000
ASUS43 KIND 261759
RWRIN

WEATHER ROUNDUP FOR INDIANA
NATIONAL WEATHER SERVICE INDIANAPOLIS IN
200 PM EDT THU MAY 26 2016

NOTE: "FAIR" INDICATES FEW OR NO CLOUDS BELOW 12,000 FEET WITH NO
SIGNIFICANT WEATHER AND/OR OBSTRUCTIONS TO VISIBILITY.

* - STATION DOES NOT REPORT WEATHER SUCH AS PRECIPITATION OR FOG.

+ - STATION NOT QUALITY CONTROLLED BY THE NATIONAL WEATHER SERVICE.
    USE DATA WITH CAUTION...ESPECIALLY DEWPOINT AND RELATIVE
    HUMIDITY OBSERVATIONS.

INZ001>003-010>013-019-020-261900-
NORTHWEST INDIANA

CITY           SKY/WX    TMP DP  RH WIND       PRES   REMARKS
GARY /AIRPORT/ CLOUDY    75  72  88 S9        29.94F
RENSSELAER +   CLOUDY    73  68  83 S8        29.94F

$$

LMZ046-743>745-261900-
SOUTHERN LAKE MICHIGAN

STATION/POSITION TIME  TEMP    WIND        PRES    WAVE
                       AIR SEA DIR/SP/G            HT
                 (UTC) (F)     (DEG/KT/KT) (MB)    (FT)
BURNS HARBOR     1700   75     170/ 10/ 19 1013.5F
MICHIGAN CITY    1700   74     160/ 15/ 17   N/A
5NW MICH CITY    1700   68 58  190/ 12/ 16   N/A     1

$$

INZ004-005-014>016-021>024-261900-
NORTH CENTRAL INDIANA

CITY           SKY/WX    TMP DP  RH WIND       PRES   REMARKS
GOSHEN         CLOUDY    76  63  64 SW10      29.95F
6HR MIN TEMP:  70; 6HR MAX TEMP:  79; 6HR PCP: TRACE;

SOUTH BEND     PTSUNNY   75  66  73 S10       29.92F
6HR MIN TEMP:  69; 6HR MAX TEMP:  78; 6HR PCP:  0.01;


$$

INZ006>009-017-018-025>027-261900-
NORTHEAST INDIANA

CITY           SKY/WX    TMP DP  RH WIND       PRES   REMARKS
ANGOLA *+      CLOUDY    79  73  83 SW10      29.97F
FORT WAYNE     CLOUDY    78  65  63 W16G26    30.00S
6HR MIN TEMP:  69; 6HR MAX TEMP:  81;


$$

INZ028-029-035-036-043>045-051>053-261900-
WEST CENTRAL INDIANA

CITY           SKY/WX    TMP DP  RH WIND       PRES   REMARKS
CRAWFORDSVL +  CLOUDY    67  67 100 SE13      29.95F
6HR MIN TEMP:  64; 6HR MAX TEMP:  71; 6HR PCP:  0.08;

GREENCASTLE +  CLOUDY    66  66 100 SE9       29.98F
LAFAYETTE      CLOUDY    71  68  90 SE6       29.94F
6HR MIN TEMP:  66; 6HR MAX TEMP:  71; 6HR PCP:  0.19;

TERRE HAUTE    CLOUDY    71  65  81 E9        29.95F
6HR MIN TEMP:  65; 6HR MAX TEMP:  76; 6HR PCP:  0.13;


$$

INZ030>032-037>040-046>048-054>057-064-065-261900-
CENTRAL INDIANA

CITY           SKY/WX    TMP DP  RH WIND       PRES   REMARKS
ANDERSON       MOSUNNY   70  66  88 SW12      30.06
COLUMBUS       CLOUDY    66  66 100 W7        30.07F
INDIANAPOLIS   LGT RAIN  68  64  87 SE8       29.97F
6HR MIN TEMP:  67; 6HR MAX TEMP:  73; 6HR PCP:  0.23;

-EAGLE CREEK   LGT RAIN  68  65  90 SE3       29.99F
6HR MIN TEMP:  68; 6HR MAX TEMP:  74; 6HR PCP:  0.09;

KOKOMO *+      PTSUNNY   73  63  68 SW6       29.98F
6HR MIN TEMP:  70; 6HR MAX TEMP:  75;

SHELBYVILLE    LGT RAIN  70  64  81 W5        30.04S
6HR MIN TEMP:  69; 6HR MAX TEMP:  77; 6HR PCP: TRACE;


$$

INZ033-034-041-042-049-050-058-059-261900-
EAST CENTRAL INDIANA

CITY           SKY/WX    TMP DP  RH WIND       PRES   REMARKS
MUNCIE         CLOUDY    75  66  73 SW9       30.03S
6HR MIN TEMP:  69; 6HR MAX TEMP:  77; 6HR PCP: TRACE;


$$

INZ060-061-067>069-081>083-085>088-261900-
SOUTHWEST INDIANA

CITY           SKY/WX    TMP DP  RH WIND       PRES   REMARKS
EVANSVILLE     LGT RAIN  67  64  90 E6        30.04F
6HR MIN TEMP:  66; 6HR MAX TEMP:  80; 6HR PCP:  0.13;

HUNTINGBURG *+ CLOUDY    66  61  82 E8        30.05F
6HR MIN TEMP:  66; 6HR MAX TEMP:  81; 6HR PCP:  0.01;


$$

INZ062-063-066-070>080-084-089>092-261900-
SOUTH CENTRAL AND SOUTHEAST INDIANA

CITY           SKY/WX    TMP DP  RH WIND       PRES   REMARKS
BLOOMINGTON    LGT RAIN  66  63  90 SE12      29.96F
6HR MIN TEMP:  65; 6HR MAX TEMP:  78; 6HR PCP:  0.16;

MADISON *+     CLOUDY    79  64  61 SE5       30.05F
SEYMOUR +      PTSUNNY   68  64  88 N10       30.04R

$$




USA.gov is the U.S. government's official web portal to all federal, state and local government web resources and services.